Regional Weather Roundup
Issued by NWS

Home | Current Version | Previous Version | Text Only | Print | Product List | Glossary On
Versions: 1 2 3 4 5 6 7 8 9 10 11 12 13 14 15 16 17 18 19 20 21 22 23 24 25 26 27 28 29 30 31 32 33 34 35 36 37 38 39 40 41 42 43 44 45 46 47 48 49 50
000
ASUS43 KOAX 222010
RWRNE

WEATHER ROUNDUP FOR NEBRASKA
NATIONAL WEATHER SERVICE OMAHA NE
300 PM CDT FRI AUG 22 2014

NOTES: SATELLITE DATA IS BEING USED TO AUGMENT CLOUD COVER ABOVE
       12000 FEET.
       "FAIR" INDICATES FEW OR NO CLOUDS BELOW 12,000 FEET WITH NO
       SIGNIFICANT WEATHER AND/OR OBSTRUCTIONS TO VISIBILITY.

  * THESE STATIONS DO NOT REPORT WEATHER SUCH AS RAIN...SNOW OR FOG.

NEZ001>004-019>022-054>056-222100-
NEBRASKA PANHANDLE

CITY           SKY/WX    TMP DP  RH WIND       PRES   REMARKS
SCOTTSBLUFF    CLOUDY    76  55  48 E10       30.06F
ALLIANCE       CLOUDY    79  55  43 S12G21    30.07R
CHADRON        CLOUDY    72  59  63 E6        30.05S
KIMBALL        MOSUNNY   75  56  50 SE14      30.10S
SIDNEY         TSTM      62  60  93 W5        30.12F
$$

NEZ057>060-069>072-079>082-222100-
SOUTHWEST NEBRASKA

CITY           SKY/WX    TMP DP  RH WIND       PRES   REMARKS
NORTH PLATTE   PTSUNNY   84  61  45 NE10      30.00F
IMPERIAL       PTSUNNY   84  57  39 N13       30.04S
LEXINGTON      MOSUNNY   89  69  51 NE12G20   29.97F HX  93
MCCOOK         MOSUNNY   92  64  39 NE18G25   29.97F HX  93
OGALLALA       PTSUNNY   72  60  64 NW7       30.06R
$$

NEZ005>010-023>029-035>040-094-222100-
NORTH CENTRAL NEBRASKA

CITY           SKY/WX    TMP DP  RH WIND       PRES   REMARKS
VALENTINE      CLOUDY    78  62  57 SW5       30.03F
AINSWORTH      LGT RAIN  76  63  62 CALM      30.03F
BROKEN BOW     PTSUNNY   85  73  67 N13       29.99F HX  91
O`NEILL        PTSUNNY   82  70  68 NE3       30.01R
ORD            PTSUNNY   87  70  56 E7        29.97R HX  92
THEDFORD       CLOUDY    75  64  69 N3        30.05F
$$

NEZ041-046>049-061>064-073>077-083>087-222100-
SOUTH CENTRAL NEBRASKA

CITY           SKY/WX    TMP DP  RH WIND       PRES   REMARKS
GRAND ISLAND   MOSUNNY   87  73  62 NE10      29.95F HX  94
AURORA         MOSUNNY   86  77  74 NE7       29.94F HX  97
HASTINGS       MOSUNNY   84  70  62 E12       29.94F
HEBRON         PTSUNNY   86  69  55 SE3       29.92S HX  90
HOLDREGE       MOSUNNY   86  71  59 NE14      29.97S HX  91
KEARNEY *      PTSUNNY   84  73  70 N10       29.97S HX  91
$$

NEZ011>018-030>034-042>045-222100-
NORTHEAST NEBRASKA

CITY           SKY/WX    TMP DP  RH WIND       PRES   REMARKS
NORFOLK        MOSUNNY   88  71  57 E9        29.94F HX  94
ALBION         MOSUNNY   87  70  57 NE6       29.96S HX  92
BLAIR          MOSUNNY   91  75  59 NE8       29.91S HX 100
FREMONT        PTSUNNY   89  72  57 CALM      29.92S HX  96
TEKAMAH        LGT RAIN  87  78  74 NE8       29.91F HX 100
WAYNE          SUNNY     87  73  63 NE3       29.96S HX  94
$$

NEZ050>053-065>068-078-088>093-222100-
SOUTHEAST NEBRASKA

CITY           SKY/WX    TMP DP  RH WIND       PRES   REMARKS
LINCOLN        PTSUNNY   91  74  57 NE8       29.90F HX 100
OMAHA EPPLEY   PTSUNNY   91  76  61 N9        29.89F HX 103
BEATRICE       CLOUDY    82  73  73 SE5       29.93R
FALLS CITY     TSTM      78  74  87 VRB6      29.93F FOG
NEBRASKA CITY  CLOUDY    81  74  81 SE10      29.93R
PLATTSMOUTH    PTSUNNY   89  74  59 SE5       29.91S HX  98
$$

NEZ044-045-051>053-067-222100-
OMAHA AREA

CITY           SKY/WX    TMP DP  RH WIND       PRES   REMARKS
OMAHA EPPLEY   PTSUNNY   91  76  61 N9        29.89F HX 103
BLAIR          MOSUNNY   91  75  59 NE8       29.91S HX 100
FREMONT        PTSUNNY   89  72  57 CALM      29.92S HX  96
MILLARD        MOSUNNY   90  75  61 CALM      29.89F HX 100
OFFUTT AFB     MOSUNNY   90  79  70 E7        29.90F HX 105
PLATTSMOUTH    PTSUNNY   89  74  59 SE5       29.91S HX  98
WAHOO          FAIR      90  71  53 MISG      29.91S HX  95
$$



USA.gov is the U.S. government's official web portal to all federal, state and local government web resources and services.